Regional Weather Roundup
Issued by NWS

Home | Current Version | Previous Version | Graphics & Text | Print | Product List | Glossary Off
Versions: 1 2 3 4 5 6 7 8 9 10 11 12 13 14 15 16 17 18 19 20 21 22 23 24 25 26 27 28 29 30 31 32 33 34 35 36 37 38 39 40 41 42 43 44 45 46 47 48 49 50

000
ASUS43 KDMX 251606
RWRIA

WEATHER ROUNDUP FOR IOWA
NATIONAL WEATHER SERVICE DES MOINES IA
1000 AM CST SAT FEB 25 2017

NOTE: "FAIR" INDICATES FEW OR NO CLOUDS BELOW 12,000 FEET WITH NO
SIGNIFICANT WEATHER AND/OR OBSTRUCTIONS TO VISIBILITY.

* - THESE STATIONS ARE NOT NWS STATIONS...THUS NOT UNDER NWS
QUALITY CONTROL.  THEY ALSO DO NOT REPORT WEATHER SUCH
AS PRECIPITATION OR FOG.

IAZ001>003-012>014-020>022-031>034-043>046-251700-
   NORTHWEST IOWA

CITY           SKY/WX    TMP DP  RH WIND       PRES   REMARKS
CARROLL *      SUNNY     23  12  63 NW12      30.07S WCI  12
CHEROKEE *     SUNNY     18  13  82 W5        30.06S WCI  11
DENISON *      SUNNY     19  14  79 W6        30.07S WCI  11
LE MARS *      CLOUDY    19  14  79 CALM      30.08F
SHELDON *      SUNNY     19  18  93 W10       30.03S WCI   8
SIOUX CITY     CLOUDY    21  14  74 W5        30.10F WCI  15
SPENCER        SUNNY     18  12  77 W12       30.04S WCI   5
STORM LAKE *   FOG       16  12  86 W12       30.04S VSB 3/4 WCI   3
$$

IAZ055>058-069>071-079>083-090>094-251700-
   SOUTHWEST IOWA

CITY           SKY/WX    TMP DP  RH WIND       PRES   REMARKS
ATLANTIC *     SUNNY     21  14  73 NW7       30.11S WCI  13
AUDUBON *      SUNNY     21  14  73 NW6       30.08S WCI  14
CLARINDA *     SUNNY     23  16  74 NW10      30.17S WCI  12
COUNCIL BLFS * CLOUDY    23  18  80 W7        30.12F WCI  15
CRESTON *      SUNNY     21  12  68 NW13G18   30.11R WCI   9
HARLAN  *      SUNNY     21  18  86 W12       30.14R WCI   9
LAMONI         SUNNY     23  13  65 NW14      30.09R WCI  11
RED OAK *      SUNNY     23  16  74 NW7       30.15R WCI  15
SHENANDOAH *   CLOUDY    23  16  74 NW6       30.17S WCI  16
$$

IAZ047>049-059>061-072>074-084-251700-
   CENTRAL IOWA

CITY           SKY/WX    TMP DP  RH WIND       PRES   REMARKS
AMES           SUNNY     20  13  74 NW17      30.06R WCI   5
ANKENY *       SUNNY     21  10  63 NW16      30.08S WCI   7
BOONE *        SUNNY     19  10  68 NW16      30.04S WCI   5
CHARITON *     SUNNY     21  12  68 NW16G22   30.07R WCI   7
DES MOINES     MOSUNNY   23  10  57 NW17      30.07S WCI   9
GRINNELL*      SUNNY     19  12  72 NW18G24   30.03S WCI   4
KNOXVILLE *    SUNNY     21   9  58 NW18      30.05R WCI   6
MARSHALLTOWN   SUNNY     19  10  68 NW20      30.02R WCI   3
NEWTON *       SUNNY     19  10  68 NW18G25   30.04R WCI   4
PELLA *        SUNNY     21  11  66 NW15      30.07R WCI   7
PERRY *          N/A     21  14  75 NW8       30.08S WCI  12
$$

IAZ004>006-015-016-023>025-035-036-251700-
   NORTH CENTRAL IOWA

CITY           SKY/WX    TMP DP  RH WIND       PRES   REMARKS
ALGONA *       FLURRIES  18  12  79 NW13G18   30.01S WCI   4
CLARION *      SUNNY     18  10  73 NW13      30.03R WCI   4
ESTHERVILLE    SUNNY     17  11  77 NW14      30.01S WCI   3
FORT DODGE *   SUNNY     18  10  73 NW9       30.05S WCI   6
MASON CITY     SUNNY     16  10  77 NW18      29.99R WCI   0
FOREST CITY *    N/A     19  10  68 NW15      29.99R HAZE    WCI   5
WEBSTER CITY * SUNNY     18  10  73 NW16      30.03R WCI   3
IOWA FALLS *     N/A     20  11  69 NW17G24   30.02R WCI   5
$$

IAZ007>011-017>019-026>030-037>042-050>054-066-251700-
   NORTHEAST IOWA

CITY           SKY/WX    TMP DP  RH WIND       PRES   REMARKS
CEDAR RAPIDS   MOSUNNY   19  13  77 NW23G31   29.97R WCI   2
CHARLES CITY * SUNNY     18   9  68 NW23      29.97R WCI   0
CLINTON *      SUNNY     21  13  71 NW22G29   29.93R WCI   5
DECORAH *      SUNNY     16   7  67 NW13G22   29.91R WCI   2
DUBUQUE        MOSUNNY   18   9  68 NW21G29   29.89R WCI   1
MONTICELLO *   CLOUDY    19  10  68 NW23      29.94R WCI   2
OELWEIN *      SUNNY     18  12  79 NW26G33   29.95R WCI  -1
WATERLOO       SUNNY     18   9  68 NW13      29.98R WCI   5
$$

IAZ064-065-067-068-078-251700-
   EAST CENTRAL IOWA

CITY           SKY/WX    TMP DP  RH WIND       PRES   REMARKS
DAVENPORT      PTSUNNY   21  12  68 NW20      29.96R WCI   6
IOWA CITY      PTSUNNY   22  12  65 NW15G24   30.01S WCI   9
MUSCATINE *    FLURRIES  23  14  68 NW20      30.01R WCI   8
QUAD CITIES    MOSUNNY   23  12  62 W20G31    29.96R WCI   8
$$

IAZ062-063-075>077-085>089-095>099-251700-
   SOUTHEAST IOWA

CITY           SKY/WX    TMP DP  RH WIND       PRES   REMARKS
BURLINGTON     PTSUNNY   23  14  68 NW17G25   30.00S WCI   9
FAIRFIELD *    PTSUNNY   21  10  63 NW18      30.03R WCI   6
KEOKUK *       MOSUNNY   25  14  63 NW17      30.03S WCI  11
CENTERVILLE *    N/A     25  14  63 W16       30.08R WCI  12
OTTUMWA        SUNNY     21  10  62 NW18      30.04S WCI   6
WASHINGTON *   CLOUDY    21  14  73 NW20G26   30.03R WCI   6
$$

ABBREVIATIONS USED IN REMARKS
   TC - TEMPERATURES IN CELSIUS
  WCI - WIND CHILL INDEX
   HX - HEAT INDEX
  VSB - VISIBILITY
$$




USA.gov is the U.S. government's official web portal to all federal, state and local government web resources and services.